Regional Weather Roundup
Issued by NWS

Home | Current Version | Previous Version | Text Only | Print | Product List | Glossary Off
Versions: 1 2 3 4 5 6 7 8 9 10 11 12 13 14 15 16 17 18 19 20 21 22 23 24 25 26 27 28 29 30 31 32 33 34 35 36 37 38 39 40 41 42 43 44 45 46 47 48 49 50

974
ASUS45 KPSR 192310
RWRAZ

ARIZONA HOURLY REGIONAL WEATHER ROUNDUP
NATIONAL WEATHER SERVICE PHOENIX AZ
400 PM MST SUN FEB 19 2017

NOTE: FAIR INDICATES FEW OR NO CLOUDS BELOW 12,000 FEET WITH NO
SIGNIFICANT WEATHER AND/OR OBSTRUCTIONS TO VISIBILITY.

AZZ001>003-036-200000-
NORTHWEST ARIZONA

CITY           SKY/WX    TMP DP  RH WIND       PRES   REMARKS
BULLHEAD CITY  CLOUDY    64  48  55 S12G17    29.90R
KINGMAN        CLOUDY    55  36  48 SW12      29.92R
$$

AZZ004>008-015-016-018-200000-
NORTH CENTRAL ARIZONA

CITY           SKY/WX    TMP DP  RH WIND       PRES   REMARKS
GRAND CANYON   CLOUDY    39  39 100 SW12      29.91R WCI  32
WILLIAMS       PTSUNNY   39  34  81 SW12G18   29.93R WCI  32
PRESCOTT       LGT RAIN  44  39  82 SW12      29.94R
FLAGSTAFF      CLOUDY    37  33  85 SW15      29.92R WCI  28
PAYSON         DRIZZLE   43  39  87 S7        29.98R
PAGE           SUNNY     50  37  61 SE6       29.83S
$$

AZZ009>014-017-200000-
NORTHEAST ARIZONA

CITY           SKY/WX    TMP DP  RH WIND       PRES   REMARKS
WINSLOW        CLOUDY    52  32  46 SW18G26   29.89R
SAINT JOHNS    PTSUNNY   47  31  53 W17G25    29.89R
WINDOW ROCK    LGT RAIN  39  31  72 W14G24    29.91R WCI  31
SHOW LOW       LGT RAIN  36  32  87 SW16      29.95R WCI  26
$$

AZZ023-200000-
GREATER PHOENIX AREA

CITY           SKY/WX    TMP DP  RH WIND       PRES   REMARKS
PHOENIX        PTSUNNY   59  49  69 W7        29.94R
BUCKEYE        MOSUNNY   57  57 100 CALM      29.95R
GLENDALE       PTSUNNY   59  59 100 SW6       29.96R
LUKE AFB       SUNNY     58  54  87 CALM      29.93R
DEER VALLEY    PTSUNNY   56  50  80 VRB5      29.94S
SCOTTSDALE     PTSUNNY   57  48  72 CALM      29.98R
MESA-FALCON    PTSUNNY  N/A N/A N/A W7        29.92
MESA-GATEWAY   PTSUNNY   57  50  77 SW8       29.96R
CHANDLER       PTSUNNY   55  52  88 S3        29.95R
$$

AZZ027-028-200000-
SOUTHWEST MARICOPA COUNTY AND PINAL COUNTY

CITY           SKY/WX    TMP DP  RH WIND       PRES   REMARKS
CASA GRANDE    NOT AVBL
GILA BEND      LGT RAIN  59  52  77 NW3       29.94R
$$

AZZ503-504-507>509-200000-
SOUTHEAST ARIZONA

CITY           SKY/WX    TMP DP  RH WIND       PRES   REMARKS
TUCSON         LGT RAIN  55  48  77 NE7       29.97R
DAVIS-MONTHAN  MOSUNNY   54  48  79 E6        29.97R
RYAN FIELD     MOSUNNY   61  39  44 SW14      29.97R
NOGALES        PTSUNNY   54  37  52 SW10      29.98R
SIERRA VISTA   PTSUNNY   52  35  54 SW15      29.99R
DOUGLAS        CLOUDY    51  39  63 NW8G17    29.98R
SAFFORD        PTSUNNY   58  38  47 W13       29.93R
$$

AZZ020-021-025-026-031-200000-
SOUTHWEST ARIZONA

CITY           SKY/WX    TMP DP  RH WIND       PRES   REMARKS
YUMA           PTSUNNY   68  48  48 S12       29.92R
$$

CAZ031-033-041-043-047-048-061-200000-
SOUTHERN CALIFORNIA

CITY           SKY/WX    TMP DP  RH WIND       PRES   REMARKS
DOWNTOWN L.A.  CLOUDY    62  49  62 CALM      29.98R
L.A. AIRPORT   PTSUNNY   58  50  75 W10       29.99R
SAN DIEGO      PTSUNNY   60  44  55 VRB7      30.04R
BURBANK        CLOUDY    58  47  66 S12       29.97R
ONTARIO        PTSUNNY   57  48  72 W6        29.97R
RIVERSIDE      CLOUDY    59  50  72 N3        29.97S
PALM SPRINGS   PTSUNNY   65  53  65 S6        29.92S
EL CENTRO NAS  SUNNY     70  41  34 SW16      29.92S
IMPERIAL       SUNNY     70  46  42 W15       29.90R
BLYTHE         SUNNY     67  48  50 SW16      29.91R
NEEDLES        CLOUDY    65  50  58 S10       29.90R
$$

NVZ020-UTZ003-200000-
SOUTHERN NEVADA-UTAH

CITY           SKY/WX    TMP DP  RH WIND       PRES   REMARKS
LAS VEGAS      PTSUNNY   62  37  39 S10       29.84R
SALT LAKE CITY PTSUNNY   52  39  61 NE3       29.74R
$$

NMZ009-TXZ055-200000-
NEW MEXICO-WEST TEXAS

CITY           SKY/WX    TMP DP  RH WIND       PRES   REMARKS
ALBUQUERQUE    MOSUNNY   50  30  46 S18       29.85R
EL PASO        PTSUNNY   57  25  29 W18       29.91S
$$


........................KEY........................
SKY/WX - SKY CONDITION/WEATHER
TMP    - TEMPERATURE IN FAHRENHEIT
DP     - DEW POINT IN FAHRENHEIT
RH     - RELATIVE HUMIDITY IN PERCENT
WIND   - DIRECTION AND SPEED IN MILES PER HOUR (MPH)
VRB    - VARIABLE WIND DIRECTION
PRES   - MEAN SEA LEVEL PRESSURE IN INCHES OF MERCURY
         F - FALLING PRESSURE   R - RISING PRESSURE
         S - STEADY PRESSURE
VSB    - VISIBILITY IN MILES
HX     - HEAT INDEX IN FAHRENHEIT
WCI    - WIND CHILL INDEX IN FAHRENHEIT
TC     - TEMPERATURE IN CELSIUS WHICH IS ALSO KNOWN AS
         TEMPERATURE IN CENTIGRADE
AFB    - AIR FORCE BASE
         LUKE AFB IS LUKE AIR FORCE BASE
         DAVIS-MONTHAN IS DAVIS-MONTHAN AIR FORCE BASE
NAS    - NAVAL AIR STATION
         EL CENTRO NAS IS EL CENTRO NAVAL AIR STATION
N/A    - NOT AVAILABLE





USA.gov is the U.S. government's official web portal to all federal, state and local government web resources and services.